sat.trackr.live / text

‹ back to catalog

HAWK-9C

NORAD 59448 · 2024-066G

PAYLOAD ACTIVE UNKNOWN

§ Identity

Operator
Country
US
Launch date
2024-04-07
Launch site
AFETR
Launch vehicle
Mass (kg)
RCS (m²)

External: N2YO · Heavens-Above · Gunter

§ Orbital elements

Epoch: 2026-05-25T03:26:08.602368Z

Period
96.06 min
Inclination
45.6037°
Eccentricity
0.0003584
Mean motion
14.99055161 rev/d
Perigee alt
567.3 km
Apogee alt
572.3 km
Semi-major
6,948.0 km
B*
1.2382e-4
RAAN
35.4595°
Arg perigee
263.8906°
Mean anomaly
96.1567°
Rev number
11,637

§ Raw data

HAWK-9C1 59448U 24066G   26145.14315512  .00001294  00000+0  12382-3 0  99922 59448  45.6037  35.4595 0003584 263.8906  96.1567 14.99055161116375

JSON: /api/v1/satellites/59448 · /tle

For live sub-satellite position, see the globe view (requires WebGL).

§ Visibility from observer

Set your observer location to see the next 7 days of passes ≥ 10°. The values pass through the URL so the page stays shareable.

No JS? Fill the form by hand. The geolocation button needs JavaScript.